Home > Weather > Altdorf > Past weeks

Flag for Switzerland Past Weather in Altdorf, Uri, Switzerland — Yesterday and Last 2 Weeks

Now
66 °F

Mild.


Feels Like: 66 °F
Forecast: 44 / 68 °F
Wind: 2 mph from North

Location: Altdorf

Current Time: Jun 30, 2016 at 10:40:44 AM

Latest Report: Jun 30, 2016 at 9:00 AM


Visibility: N/A

Pressure: 30.00 "Hg

Humidity: 90%

Dew Point: 63 °F

Location of AltdorfLocation

Past Weather in Altdorf — Graph

°F

Altdorf Temperature Yesterday

Maximum temperature yesterday: 78 °F (at 4:00 PM)
Minimum temperature yesterday: 60 °F (at 6:00 AM)
Average temperature yesterday: 70 °F

High & Low Weather Summary for the Past Weeks

 TemperatureHumidityPressure
High87 °F (Jun 23, 5:00 PM)100% (Jun 22, 9:00 AM)30.29 "Hg (Jun 22, 9:00 AM)
Low48 °F (Jun 17, 5:00 AM)44% (Jun 27, 5:00 PM)29.58 "Hg (Jun 15, 3:00 PM)
Average63 °F78%30.03 "Hg
* Reported Jun 15 9:00 AM — Jun 30 9:00 AM, Altdorf, Weather by CustomWeather, © 2016

Note: Actual official high and low records may vary slightly from our data, if they occured in-between our weather recording intervals... More about our weather records

Advertising

Altdorf Weather History for the Previous 24 Hours

Scroll right to see more
 ConditionsComfort  
Time TempWeatherWind HumidityBarometerVisibility
9:00 AM
Thu, Jun 30
66 °FMild.2 mph90%30.00 "HgN/A
8:00 AM64 °FOvercast.1 mph92%29.99 "Hg9 mi
7:00 AM64 °FMild.No wind93%29.98 "HgN/A
6:00 AM65 °FMild.2 mph90%29.97 "HgN/A
5:00 AM64 °FPassing clouds.2 mph93%29.98 "Hg12 mi
4:00 AM65 °FMild.1 mph94%29.97 "HgN/A
3:00 AM65 °FMild.1 mph92%29.95 "HgN/A
2:00 AM64 °FPassing clouds.1 mph93%29.94 "Hg11 mi
1:00 AM65 °FMild.8 mph90%29.93 "HgN/A
12:00 AM65 °FMild.2 mph93%29.93 "HgN/A
11:00 PM
Wed, Jun 29
65 °FMild.2 mph93%29.96 "HgN/A
10:00 PM68 °FMild.8 mph90%29.94 "HgN/A
9:00 PM71 °FMild.2 mph77%29.89 "HgN/A
8:00 PM72 °FPartly sunny.5 mph73%29.88 "Hg11 mi
7:00 PM76 °FMild.2 mph65%29.86 "HgN/A
6:00 PM75 °FMild.3 mph69%29.86 "HgN/A
5:00 PM77 °FPartly sunny.3 mph55%29.87 "Hg14 mi
4:00 PM78 °FWarm.7 mph55%29.88 "HgN/A
3:00 PM78 °FWarm.12 mph58%29.89 "HgN/A
2:00 PM76 °FScattered clouds.12 mph55%29.91 "Hg16 mi
1:00 PM76 °FMild.12 mph56%29.93 "HgN/A
12:00 PM74 °FMild.6 mph60%29.95 "HgN/A
11:00 AM71 °FPartly sunny.5 mph68%29.98 "Hg12 mi
10:00 AM69 °FMild.7 mph70%29.99 "HgN/A
Weather by CustomWeather, © 2016

See weather overviewHow to use our weather pages